Погода в Нижней Пыхте

Россия / Удмуртская Республика     57°41′23″N   53°59′33″E
темп.,
°C
ветер,
м/с
пор.,
м/с
влажн.,
%
обл.,
%
осадки,
мм/ч
давл.,
гПа
погр.,
м
11 мая, вт
вт1101:00+15ссв2672100 0.0 1023171
04:00+14ссв3980100 0.0 1024307
07:00+15ссв4976100 0.0 1025414
10:00+20всв345491 0.0 1026803
13:00+24всв22409 0.0 10261963
16:00+18ссв147099 0.4 1027101
19:00+17св227440 0.5 102848
22:00+14св38885 0.5 1029160
12 мая, ср
ср1201:00+12св24895 0.0 103072
04:00+11всв239035 0.0 103050
07:00+14всв246987 0.0 1031217
10:00+19всв22500 0.0 1030646
13:00+24всв11424 0.0 10291490
16:00+24зсз12371 0.0 10281979
19:00+21ссв12514 0.0 102814
22:00+16всв11605 0.0 102911
13 мая, чт
чт1301:00+15вюв11625 0.0 102911
04:00+13всв11700 0.0 102911
07:00+18вюв11590 0.0 1029128
10:00+23юв22460 0.0 1029864
13:00+25ю22380 0.0 10272163
16:00+26ю333550 0.0 10262409
19:00+22юз225074 0.0 102642
22:00+17юз245472 0.0 102661
14 мая, пт
пт1401:00+15юз22565 0.0 102614
04:00+14ююз22594 0.0 102626
07:00+18ююз365446 0.0 1026205
10:00+23ююз463817 0.0 10251147
13:00+25юз4631100 0.0 10241729
16:00+25ююз46315 0.0 10231727
19:00+22ю265098 0.0 1022150
22:00+18ююз31061100 0.0 1022181
15 мая, сб
сб1501:00+16юз276995 0.0 1021126
04:00+15юз257894 0.0 102291
07:00+18юз386523 0.0 1022250
10:00+24юз473814 0.0 1021911
13:00+27юз582815 0.0 10201814
16:00+28зюз57285 0.0 10192147
19:00+24юз38454 0.0 1018232
22:00+18ююз310601 0.0 1018183